Location: Carter Cabin
(41.0271°N, 122.9339°W)
Time: 16:48:21
(UTC+00:00)

Cosmos 1515 Rocket - Pass Details

Date: 13 April 2024
Orbit: 601 x 623 km, 82.5° (Epoch: 17 May)

Event Time Altitude Azimuth Distance (km) Brightness Sun altitude
Rises 12:11:11 0° 174° (S) 2,892 6.8 -15.6°
Reaches altitude 10° 12:13:26 10° 169° (S) 1,992 6.0 -15.2°
Maximum altitude 12:17:43 51° 93° (E) 788 4.4 -14.5°
Drops below altitude 10° 12:22:02 10° 18° (NNE) 2,008 6.8 -13.7°
Sets 12:24:19 0° 14° (NNE) 2,918 7.6 -13.4°
